MOLNIYA 1-56 (13890 NORAD) Tracking and Keplerian Element Data

This shows tracking and keplerian element data for the satellite.

Feedback or suggestion? Click here.




ElementValue
Catalog13890
NameMOLNIYA 1-56
Epoch Orbit30571
Epoch Day28.2001578
Epoch Year2025
RAAN232.5865
Inclination62.536
Eccentricity0.7144048
Argument of Perigee272.6641
Mean Anonmoly14.9227
Mean Motion1.99988773
Decay Rate1.674E-05
L11 13890U 83019A 25028.20015780 .00001674 00000+0 20175-1 0 9995
L22 13890 62.5360 232.5865 7144048 272.6641 14.9227 1.99988773305714



Live tracking and technical data element details for MOLNIYA 1-56 (NORAD 13890). MOLNIYA 1-56 can be tracked NOW for your location showing map with azimuth and elevation plus other details from your city location.







IsCatalogInMostPopularTable: catalog: 13890, numindb: 343
Update: records affected: 1



GetName: 13890 MOLNIYA 1-56

Hit Count: updated at: Fri, 16 May 2025 11:43:41 GMT